TimeEDT,TemperatureF,Dew PointF,Humidity,Sea Level PressureIn,VisibilityMPH,Wind Direction,Wind SpeedMPH,Gust SpeedMPH,PrecipitationIn,Events,Conditions,WindDirDegrees,DateUTC
12:55 AM,64.4,63.0,95,30.06,10.0,West,6.9,-,N/A,,Clear,270,2012-10-05 04:55:00
1:55 AM,63.3,61.9,95,30.06,10.0,West,6.9,-,N/A,,Clear,270,2012-10-05 05:55:00
2:55 AM,62.6,61.2,95,30.06,10.0,West,5.8,-,N/A,,Clear,270,2012-10-05 06:55:00
3:55 AM,61.3,59.9,95,30.06,10.0,West,3.5,-,N/A,,Clear,260,2012-10-05 07:55:00
4:55 AM,60.1,59.0,96,30.06,10.0,West,3.5,-,N/A,,Clear,260,2012-10-05 08:55:00
5:55 AM,59.4,57.4,93,30.07,10.0,West,3.5,-,N/A,,Clear,260,2012-10-05 09:55:00
6:55 AM,58.1,56.1,93,30.07,10.0,Calm,Calm,-,N/A,,Clear,0,2012-10-05 10:55:00
7:55 AM,59.0,57.6,95,30.08,10.0,Calm,Calm,-,N/A,,Clear,0,2012-10-05 11:55:00
8:55 AM,64.4,57.6,78,30.08,10.0,West,4.6,-,N/A,,Clear,270,2012-10-05 12:55:00
9:55 AM,68.9,58.6,70,30.08,10.0,West,6.9,-,N/A,,Clear,280,2012-10-05 13:55:00
10:55 AM,72.9,58.8,61,30.07,10.0,West,5.8,-,N/A,,Clear,280,2012-10-05 14:55:00
11:55 AM,75.7,58.6,55,30.06,10.0,WSW,8.1,-,N/A,,Clear,250,2012-10-05 15:55:00
12:49 PM,77.0,59.0,54,30.04,10.0,Calm,Calm,-,N/A,Rain,Light Rain,0,2012-10-05 16:49:00
12:55 PM,78.4,59.4,52,30.03,10.0,Variable,6.9,-,N/A,,Clear,0,2012-10-05 16:55:00
1:55 PM,79.3,58.5,49,30.00,10.0,WNW,9.2,-,N/A,,Partly Cloudy,290,2012-10-05 17:55:00
2:55 PM,80.1,58.1,47,29.98,10.0,West,9.2,-,N/A,,Partly Cloudy,270,2012-10-05 18:55:00
3:55 PM,79.7,55.8,44,29.96,10.0,WSW,9.2,-,N/A,,Partly Cloudy,250,2012-10-05 19:55:00
4:55 PM,79.0,55.9,45,29.96,10.0,West,4.6,-,N/A,,Partly Cloudy,270,2012-10-05 20:55:00
5:55 PM,76.6,56.7,50,29.97,10.0,Calm,Calm,-,N/A,,Clear,0,2012-10-05 21:55:00
6:55 PM,67.8,61.7,81,29.97,10.0,SW,4.6,-,N/A,,Clear,220,2012-10-05 22:55:00
7:55 PM,66.2,59.9,80,29.97,10.0,SSW,5.8,-,N/A,,Clear,210,2012-10-05 23:55:00
8:55 PM,64.4,58.6,82,29.97,10.0,SSW,5.8,-,N/A,,Clear,200,2012-10-06 00:55:00
9:55 PM,64.2,58.5,82,29.96,10.0,SSW,8.1,-,N/A,,Clear,210,2012-10-06 01:55:00
10:55 PM,62.4,58.1,86,29.96,10.0,SSW,5.8,-,N/A,,Clear,200,2012-10-06 02:55:00
11:55 PM,61.7,57.9,87,29.94,10.0,South,5.8,-,N/A,,Clear,180,2012-10-06 03:55:00